Location: Colonia Mina de C?rbuni
(46.1667°N, 22.7167°E)
Time: 15:31:14
(UTC+00:00)

Courier 1B - Pass Details

Date: 29 April 2024
Orbit: 962 x 1208 km, 28.3° (Epoch: 23 May)

Event Time Altitude Azimuth Distance (km) Brightness Sun altitude
Rises 19:38:59 0° 207° (SSW) 4,073 10.5 -18.3°
Enters shadow 19:42:11 - 191° (SSW) 3,408 10.0 -18.7°
Reaches altitude 10° 19:44:09 10° 179° (S) 3,133 - -18.9°
Maximum altitude 19:46:46 12° 159° (SSE) 2,992 - -19.2°
Drops below altitude 10° 19:49:24 10° 139° (SE) 3,139 - -19.5°
Sets 19:54:34 0° 111° (ESE) 4,088 - -20.1°
